This demonstration page uses our WeatherBlox Daily Observations layout. Learn more.

Left ArrowRight Arrow

38.20091, -84.87328

Hourly Observations for July 16, 2022

Temp ( °F °C ) Dew Point ( °F °C ) Humidity (%) Winds ( mph kmh ) Pressure ( in mb ) Visibility ( mi km ) Precip ( " mm )
12:53 am 00:53 Cloudy 76 24.4 66 18.9 72 72 Calm 30.06 1018 10 16 0.00 0.00
1:53 am 01:53 Cloudy 73 22.8 68 20 84 84 Calm 30.06 1018 10 16 0.00 0.00
2:53 am 02:53 Clear 71 21.7 67 19.4 87 87 Calm 30.06 1018 10 16 0.00 0.00
3:53 am 03:53 Clear 69 20.6 66 18.9 90 90 Calm 30.04 1017 10 16 0.00 0.00
4:53 am 04:53 Mostly Cloudy 72 22.2 65 18.3 79 79 Calm 30.03 1017 10 16 0.00 0.00
5:53 am 05:53 Cloudy 72 22.2 65 18.3 79 79 Calm 30.03 1017 10 16 0.00 0.00
6:53 am 06:53 Mostly Cloudy 72 22.2 64 17.8 76 76 ESE 3 6 30.04 1017 10 16 0.00 0.00
7:53 am 07:53 Cloudy 72 22.2 64 17.8 76 76 SSE 7 11 30.04 1017 10 16 0.00 0.00
8:53 am 08:53 Cloudy 74 23.3 64 17.8 71 71 SSE 5 7 30.04 1017 10 16 0.00 0.00
9:53 am 09:53 Mostly Cloudy 77 25 65 18.3 66 66 S 8 13 30.04 1017 10 16 0.00 0.00
10:53 am 10:53 Partly Cloudy 80 26.7 66 18.9 62 62 S 8 13 30.04 1017 10 16 0.00 0.00
11:53 am 11:53 Mostly Sunny 86 30 70 21.1 59 59 SW 10 17 30.03 1017 10 16 0.00 0.00
12:53 pm 12:53 Sunny 88 31.1 68 20 52 52 SW 10 17 30.01 1016 10 16 0.00 0.00
1:53 pm 13:53 Mostly Sunny 89 31.7 66 18.9 47 47 SW 18 30 30.00 1016 10 16 0.00 0.00
2:53 pm 14:53 Sunny 92 33.3 66 18.9 43 43 SW 15 24 29.99 1016 10 16 0.00 0.00
4:53 pm 16:53 Sunny 92 33.3 66 18.9 43 43 SW 13 20 29.94 1014 10 16 0.00 0.00
5:53 pm 17:53 Sunny 92 33.3 64 17.8 40 40 SW 9 15 29.92 1013 10 16 0.00 0.00
6:53 pm 18:53 Mostly Sunny 89 31.7 66 18.9 47 47 SW 10 17 29.91 1013 10 16 0.00 0.00
7:53 pm 19:53 Mostly Cloudy 89 31.7 68 20 50 50 SSW 7 11 29.90 1013 10 16 0.00 0.00
8:53 pm 20:53 Sunny 85 29.4 67 19.4 55 55 S 8 13 29.91 1013 10 16 0.00 0.00
9:53 pm 21:53 Clear 81 27.2 68 20 65 65 SW 3 6 29.93 1013 10 16 0.00 0.00
10:53 pm 22:53 Mostly Clear 78 25.6 67 19.4 69 69 SSW 5 7 29.94 1014 10 16 0.00 0.00
11:53 pm 23:53 Mostly Clear 80 26.7 66 18.9 62 62 S 5 7 29.94 1014 10 16 0.00 0.00

Powered by AerisWeather